Regional Weather Roundup
Issued by NWS Raleigh/Durham, NC

Home | Current Version | Previous Version | Text Only | Print | Product List | Glossary On
Versions: 1 2 3 4 5 6 7 8 9 10 11 12 13 14 15 16 17 18 19 20 21 22 23 24 25 26 27 28 29 30 31 32 33 34 35 36 37 38 39 40 41 42 43 44 45 46 47 48 49 50
000
ASUS42 KRAH 181510
RWRRAH
NORTH CAROLINA WEATHER ROUNDUP
NATIONAL WEATHER SERVICE RALEIGH NC
1100 AM EDT SAT APR 18 2015

NOTE: "FAIR" INDICATES FEW OR NO CLOUDS BELOW 12,000 FEET WITH NO
SIGNIFICANT WEATHER AND/OR OBSTRUCTIONS TO VISIBILITY.

NCZ001-053-055-056-065-067-181600-
WESTERN NORTH CAROLINA

CITY           SKY/WX    TMP DP  RH WIND       PRES   REMARKS
ASHEVILLE      PTSUNNY   69  57  65 CALM      30.06S
JEFFERSON      PTSUNNY   64  51  62 NE5       30.10S
MORGANTON      CLOUDY    69  58  68 CALM      30.09R
HICKORY        CLOUDY    69  60  73 NE3       30.03S
RUTHERFORDTON  PTSUNNY   74  61  63 E6        30.03R
MOUNT AIRY     SUNNY     73  57  57 E7        30.07R
BOONE          PTSUNNY   65  52  62 SE3       30.10S
$$

NCZ021-022-025-041-071-084-088-181600-
CENTRAL NORTH CAROLINA

CITY           SKY/WX    TMP DP  RH WIND       PRES   REMARKS
CHARLOTTE      PTSUNNY   71  61  70 CALM      30.02F
GREENSBORO     MOSUNNY   73  60  63 NE14      30.02R
WINSTON-SALEM  SUNNY     73  59  61 NE10      30.04R
RALEIGH-DURHAM PTSUNNY   72  63  73 NE5       30.02R
FORT BRAGG     MOSUNNY   73  63  72 CALM      30.00R
FAYETTEVILLE   CLOUDY    73  63  70 E3        30.00S
BURLINGTON     SUNNY     76  63  64 NE8       30.01R
LAURINBURG     PTSUNNY   72  64  76 CALM      30.02R
$$

NCZ011-015-027-028-043-044-047-080-103-181600-
NORTHEASTERN NORTH CAROLINA

CITY           SKY/WX    TMP DP  RH WIND       PRES   REMARKS
ROCKY MT-WILSO PTSUNNY   72  64  76 SE5       30.01R
GREENVILLE     PTSUNNY   72  64  78 NE3       30.02S
WASHINGTON     PTSUNNY   72  65  79 NE3       30.01R
ELIZABETH CITY MOSUNNY   76  65  68 NE3       29.99S
MANTEO         CLOUDY    73  64  74 N7        30.00S
CAPE HATTERAS  CLOUDY    64  61  90 SE3       30.00R
$$

NCZ078-087-090-091-093-098-101-181600-
SOUTHEASTERN NORTH CAROLINA

CITY           SKY/WX    TMP DP  RH WIND       PRES   REMARKS
LUMBERTON      CLOUDY    70  66  87 SE3       30.01R FOG
GOLDSBORO      PTSUNNY   74  64  71 CALM      29.99R
KINSTON        SUNNY     75  64  69 N3        30.01R
KENANSVILLE    CLOUDY    70  66  88 CALM      30.03R
NEW BERN       PTSUNNY   75  65  70 NE5       30.01R
CHERRY POINT   PTSUNNY   73  66  78 CALM      30.01R
BEAUFORT       CLOUDY    69  67  93 SW3       30.01R
JACKSONVILLE   LGT RAIN  69  67  93 S3        30.00S
WILMINGTON     LGT RAIN  68  66  93 NE6       30.01S
$$




USA.gov is the U.S. government's official web portal to all federal, state and local government web resources and services.